星链-36068(STARLINK-36068)

导读 | 豆包AI

STARLINK-36068是美国SpaceX星链星座的卫星,于2025年12月31日发射。作为星链互联网星座的组成部分,它旨在为全球提供低延迟、高速率的宽带互联网服务,尤其覆盖偏远和网络基础设施薄弱地区。星链通过大规模低轨卫星组网,依托空间传输技术,持续拓展全球卫星互联网覆盖范围,该卫星的发射延续了星链星座的组网推进节奏。

基本信息
目录编号:
66845
目录名称:
STARLINK-36068
国际标识:
2025-280AA
轨道中心:
EARTH
卫星名称:
星链-36068
卫星全名:
星链-36068(STARLINK-36068)
卫星状态:
在轨 (已飞行102 天)
发射日期:
2025-12-02 UTC
国别 :
美国 (US)
星等 :
--
轨道信息
数据来源 国际轨道数据
星历时间: 2026-03-14T06:11:29+0800
6小时前
查看轨道信息
半长轴: 6950.23km
偏心率: 0.0002733
轨道倾角: 70.002°
近地点辐角 276.245°
升交点赤经 323.637°
平近点角 83.840°
近地点: 570.193km
远地点: 573.993km
周期: 96.108分钟
每日圈数: 14.983182
详细信息
固有亮度:
5
最大亮度:
2.5
卫星平台:
Starlink V1.0
覆盖范围:
全球
运营商:
太空探索技术公司
运营商所在国:
美国
制造商(研发单位):
太空探索技术公司
制造商所在国:
美国
使用方式:
暂无
卫星简介
Starlink 计划是 SpaceX 推出的全球卫星互联网项目,通过发射低轨道卫星,为全球尤其是偏远地区提供高速、低延迟的互联网服务。自 2019 年起,Starlink 已部署数千颗卫星,旨在缩小全球数字鸿沟,推动互联网普及。该项目还为军事、航空等行业提供通信支持,带来广泛经济效益。
2D轨道图
3D轨道图
轨道高度分析图
轨道倾角分析图
轨道综合分析图
查看轨道综合分析图